Theta_e
314 314 315 315 315 314 314 314 314 313 313 313 313 312 312 312 312 312 311 311 313 312 313 316 317 317 318 317 317 315 314 311 306 303 300 297 295 299 296 293 288 286 286
314 314 314 314 314 314 313 313 313 312 312 312 312 312 312 311 311 311 311 310 311 313 312 313 314 316 315 316 315 314 313 312 308 303 298 297 299 291 294 290 288 287 286
314 314 313 313 313 313 313 313 312 312 311 311 311 311 311 311 311 310 310 309 309 311 311 312 313 315 316 315 314 313 312 311 305 298 297 296 291 294 293 287 287 287 287
313 314 314 313 313 313 312 312 312 312 311 311 311 310 310 310 309 309 308 309 308 309 311 313 313 312 314 313 312 312 311 309 301 299 295 292 294 294 288 287 288 288 289
313 313 312 312 312 312 312 311 311 311 311 310 310 309 309 309 308 308 307 308 309 308 309 310 310 311 311 311 309 308 306 304 300 298 294 293 292 288 287 291 290 291 290
311 311 311 312 312 312 311 310 310 310 309 309 309 308 308 308 307 307 306 305 305 306 308 309 309 308 309 309 305 303 300 300 299 296 293 291 289 290 291 294 293 291 289
311 311 311 311 312 312 312 310 309 308 308 308 307 307 307 306 305 305 305 305 305 307 307 307 307 306 306 304 301 299 298 296 294 293 291 289 290 293 294 293 292 291 288
311 311 310 310 310 311 311 311 311 309 307 306 305 305 304 304 303 302 302 303 305 305 305 306 305 304 301 298 297 296 294 292 291 289 288 290 293 292 292 292 292 289 287
310 310 310 310 310 309 309 309 309 308 306 305 304 303 302 301 300 300 301 302 304 304 304 303 302 299 296 293 293 292 291 290 289 288 291 292 292 292 291 290 290 288 287
307 309 309 310 309 309 308 307 306 305 304 302 302 302 300 298 298 299 300 301 301 301 300 299 297 296 294 291 291 291 290 290 289 289 292 291 291 291 290 289 288 287 286
306 308 309 309 306 305 305 304 302 302 301 300 299 297 297 297 298 298 299 298 298 297 296 294 293 291 289 289 289 290 290 290 289 291 290 290 290 289 289 288 287 286 285
305 306 307 307 303 301 300 301 300 299 298 297 296 295 295 297 297 297 293 294 294 293 292 291 290 289 289 289 289 289 289 289 289 290 290 290 289 288 288 287 286 285 284
301 302 302 301 301 299 297 297 299 297 295 294 293 294 295 295 294 291 290 291 291 290 290 289 288 288 288 288 288 288 289 289 289 289 288 288 288 287 286 286 285 284 283
299 299 298 297 297 296 295 296 296 295 294 293 294 293 292 292 290 289 288 289 289 289 289 288 288 287 287 288 288 288 289 289 288 288 287 287 287 286 285 284 284 283 282
296 295 295 296 295 295 294 293 294 294 293 293 293 293 293 292 291 290 289 289 289 289 289 289 288 288 287 287 287 288 288 287 287 287 286 286 285 284 284 283 283 282 281
295 293 292 292 292 292 291 291 291 291 291 291 292 292 292 291 291 289 288 288 289 289 289 288 288 288 287 287 287 287 287 286 286 285 285 284 284 283 282 282 281 280 279
293 293 290 290 289 289 288 289 290 288 288 290 290 290 290 290 289 289 289 287 287 286 286 286 286 286 285 285 285 284 284 284 284 283 283 282 281 281 280 279 279 278 277
292 290 289 289 289 288 289 290 291 291 291 290 288 289 289 289 288 287 287 287 287 286 286 285 285 284 284 284 285 284 283 283 282 280 280 280 279 279 278 278 277 276 276
290 289 289 289 288 288 289 290 290 290 290 289 289 289 289 288 288 288 287 287 287 286 286 285 284 284 283 283 283 282 282 281 281 280 279 279 278 277 277 276 276 275 273
289 290 290 289 288 289 290 290 289 288 288 287 286 286 286 285 285 285 285 285 284 284 284 283 283 282 282 282 281 281 280 279 279 278 278 277 276 276 275 273 272 271 271
288 289 289 288 288 290 289 288 287 286 286 285 285 285 285 284 284 284 283 283 282 282 281 281 280 280 279 279 279 278 278 278 277 277 276 274 273 272 272 271 271 270 270
288 289 288 288 289 288 288 287 286 285 285 285 285 284 284 283 282 281 281 280 280 279 278 278 277 277 276 276 275 275 274 273 273 273 272 272 271 271 270 270 269 269 269
287 287 289 289 288 288 286 286 285 284 284 283 283 282 281 280 280 279 279 279 278 278 277 277 276 276 275 275 274 274 273 273 272 272 271 271 270 270 269 269 268 268 268
285 288 288 286 286 286 285 284 283 282 282 281 280 279 279 279 279 278 278 277 277 276 275 275 274 274 273 273 273 273 272 271 271 270 269 269 269 268 267 267 267 267 266
285 285 285 286 285 284 283 282 280 279 280 279 279 279 278 278 277 276 275 275 274 274 273 272 272 272 272 271 271 271 270 270 269 269 269 268 268 267 267 267 267 267 266
282 283 283 283 282 281 280 279 279 279 279 278 278 277 276 275 274 274 273 273 272 271 271 270 270 270 270 269 269 269 269 269 269 268 268 268 267 267 266 266 266 266 266
Wind_Speed
14 14 16 15 18 22 27 31 33 33 33 34 34 35 34 32 31 33 35 38 45 42 45 50 50 50 54 46 48 46 43 43 48 44 37 31 32 35 27 36 36 33 30
22 19 20 22 23 27 29 31 34 36 35 35 35 37 36 34 32 31 33 34 38 43 44 46 48 49 46 50 45 48 41 41 45 46 39 37 37 26 27 35 34 31 28
23 23 23 25 26 31 33 31 32 33 34 35 36 37 37 35 34 32 32 33 34 37 41 43 46 48 45 48 41 47 39 43 40 42 43 33 29 30 28 30 30 28 26
22 23 25 26 30 33 32 31 31 32 35 36 37 37 37 35 33 33 32 33 33 34 35 40 42 42 43 43 46 46 42 39 38 39 36 35 29 25 30 31 28 29 33
28 29 29 31 32 34 34 33 33 35 37 37 37 37 35 34 33 33 33 33 34 35 36 38 36 39 38 39 41 42 39 36 37 37 35 29 25 30 31 28 32 33 26
34 35 36 35 34 35 35 35 36 36 36 35 34 34 34 33 30 30 31 33 33 34 37 35 37 36 36 38 37 35 30 32 35 33 31 25 24 26 31 28 25 24 25
35 37 37 36 36 34 34 34 35 34 33 33 33 32 32 30 29 29 30 31 32 33 34 33 32 33 33 33 31 29 28 26 23 26 22 22 26 30 22 25 21 24 25
35 38 40 38 35 33 34 34 35 34 32 31 31 30 30 28 27 28 27 27 30 31 30 30 31 30 28 26 25 24 20 18 22 20 23 26 24 14 11 17 21 24 25
33 36 38 40 42 39 36 36 35 34 32 30 29 27 27 26 25 24 25 25 27 28 27 27 26 24 22 17 16 18 20 23 22 23 18 13 8 13 13 15 19 22 23
33 35 38 39 41 40 37 34 31 30 28 27 27 27 26 24 21 21 23 22 23 23 22 22 20 17 15 11 14 19 25 23 23 27 15 7 10 14 12 16 18 22 22
35 36 35 37 36 35 33 29 27 26 25 24 24 22 20 18 16 20 19 18 17 16 15 13 10 8 10 10 11 15 14 14 21 16 7 10 13 14 16 19 22 24 24
36 34 34 34 34 32 30 27 23 23 21 20 18 16 15 14 14 15 10 11 10 8 7 6 6 8 11 11 12 12 14 15 12 10 16 21 20 19 19 19 20 23 26
34 33 31 30 30 28 26 24 19 17 17 13 11 12 12 11 10 10 7 8 9 8 9 10 11 11 14 14 11 12 15 14 16 20 20 19 17 20 20 18 19 20 19
32 30 28 27 26 25 22 21 16 13 12 10 11 11 9 9 12 12 8 11 13 13 13 13 13 14 14 13 12 15 17 19 22 20 19 18 21 20 19 18 19 19 20
29 27 25 24 23 21 19 14 11 10 9 10 10 10 10 12 12 12 11 10 14 15 13 12 12 12 13 14 16 19 20 19 19 18 19 21 20 20 19 19 20 21 22
28 25 24 22 19 17 13 12 11 11 13 13 14 13 15 16 17 13 11 11 10 10 10 8 7 5 6 7 9 11 14 15 17 19 20 19 18 18 18 19 20 21 22
25 25 22 20 16 16 17 16 20 17 15 15 14 12 13 12 13 12 11 10 6 4 5 3 1 3 6 9 12 13 14 15 18 19 18 16 17 18 19 20 21 22 22
24 23 19 18 19 19 18 16 15 16 16 16 14 13 13 15 14 13 11 10 8 7 3 3 5 7 9 11 12 13 15 15 15 15 16 17 19 18 19 19 19 19 21
24 22 20 20 20 18 16 13 13 14 14 14 13 10 10 9 9 8 7 5 5 3 2 3 5 7 8 10 11 12 14 15 16 17 17 18 17 17 17 17 19 20 20
22 22 21 23 22 20 17 16 16 15 15 15 13 13 11 9 9 8 7 5 3 1 2 5 7 9 10 12 13 14 15 16 17 17 17 18 18 18 18 18 18 18 17
24 23 22 24 24 21 19 17 17 16 15 13 12 12 9 7 5 5 3 2 2 4 6 8 9 11 12 14 15 16 16 17 18 18 18 19 19 19 19 18 18 17 16
26 26 25 24 22 20 18 17 16 15 13 12 10 8 7 4 2 2 3 4 6 8 9 11 12 14 15 16 16 16 16 17 17 19 19 20 20 19 19 18 17 15 16
27 27 24 24 22 20 19 18 18 16 14 10 7 6 3 1 2 4 6 8 10 11 13 14 15 16 17 17 17 18 18 18 18 19 19 20 20 19 18 17 16 16 15
26 24 26 24 22 21 20 21 19 16 12 8 6 3 2 4 6 8 10 12 13 14 15 16 16 16 16 17 17 18 18 18 18 18 18 18 18 18 18 16 16 15 16
24 24 23 22 21 21 20 18 15 12 9 7 6 5 6 9 10 11 12 13 14 16 16 16 16 16 17 17 17 17 16 17 16 17 17 17 18 18 18 17 17 18 18
21 21 21 21 20 19 16 14 11 9 8 7 7 8 9 11 12 14 15 15 15 14 15 16 17 17 17 17 16 15 16 16 17 18 18 18 18 17 17 17 18 18 18
Wind_Direction
326 300 297 302 300 299 294 287 280 275 273 273 273 273 271 269 269 269 267 259 258 260 257 257 260 263 265 264 262 259 261 262 257 259 258 245 238 248 232 237 232 232 235
323 305 294 292 296 300 301 294 286 280 274 271 271 271 272 271 270 269 268 266 258 256 260 259 259 259 262 267 266 260 259 266 256 252 246 247 256 230 236 236 228 229 234
316 309 297 293 290 298 301 294 287 280 275 273 271 270 271 272 273 272 269 266 263 256 257 258 261 261 265 263 264 265 263 264 258 248 251 248 227 236 228 220 223 228 236
313 308 304 301 300 300 296 290 283 280 276 272 272 271 269 271 272 272 269 265 264 262 261 264 265 262 266 267 267 259 258 261 254 248 237 236 236 222 222 216 219 230 240
316 313 311 307 299 293 291 288 285 280 275 274 273 268 266 266 267 268 268 265 262 260 260 266 264 267 265 267 266 262 261 257 250 240 238 227 215 217 210 218 225 239 249
314 312 311 308 304 299 293 289 286 284 279 275 270 267 267 266 264 262 263 263 262 259 261 264 267 264 263 268 265 259 258 254 248 232 219 209 205 208 221 228 240 244 250
313 312 311 307 303 301 298 292 290 287 280 275 271 269 268 267 263 259 259 258 259 259 260 264 266 266 268 267 262 260 252 250 242 227 205 196 211 223 229 233 261 257 251
312 312 313 309 303 297 296 297 295 290 282 276 273 269 266 264 261 262 260 256 255 258 260 265 266 269 266 262 256 253 238 213 200 180 191 220 236 230 263 291 272 257 262
309 308 309 308 306 301 295 290 288 285 281 276 270 264 261 260 261 259 259 256 256 257 260 261 262 260 256 250 244 234 217 201 192 185 209 207 241 275 273 281 273 269 269
307 305 303 303 303 298 294 290 286 281 276 272 267 264 262 262 262 260 257 258 256 255 254 255 259 258 250 227 233 222 206 202 184 200 219 228 262 270 290 291 281 268 264
298 295 298 299 298 296 291 288 284 279 275 273 270 268 266 263 255 255 256 248 250 252 254 256 251 227 202 219 217 204 188 183 203 211 226 263 280 288 295 291 276 267 264
294 291 291 295 295 292 288 282 279 275 272 271 268 267 258 249 240 241 220 234 232 234 227 199 176 178 185 180 172 176 205 212 202 234 261 271 279 282 290 280 265 257 258
295 292 289 286 285 282 279 276 266 266 262 264 258 243 239 227 210 182 174 150 138 142 140 136 142 145 153 162 195 213 200 226 256 271 270 276 280 286 283 273 266 260 259
299 294 289 286 285 279 269 264 260 249 235 219 218 213 202 187 175 164 148 138 127 125 127 131 140 153 168 186 192 211 233 255 266 268 273 277 285 286 283 276 271 263 267
297 291 285 281 277 269 255 240 220 201 191 192 172 160 156 150 150 150 142 134 125 124 126 133 143 159 180 199 216 236 250 258 269 279 285 287 284 282 279 276 264 255 257
292 285 281 271 256 239 212 171 144 148 146 145 139 139 138 146 145 155 152 136 128 129 125 126 136 159 193 218 235 251 259 266 273 278 279 282 282 280 274 260 252 257 268
286 279 270 252 221 191 177 167 149 144 140 138 135 132 137 141 146 156 151 136 124 130 110 105 164 230 243 254 265 271 275 279 279 278 279 276 274 273 269 265 267 270 273
277 263 250 226 206 196 196 182 165 162 162 155 154 155 154 156 156 154 162 162 152 171 188 213 235 244 257 266 270 266 265 266 269 273 273 274 275 274 270 269 270 273 276
260 243 234 216 203 200 192 185 180 176 174 172 161 160 156 162 153 147 145 148 154 178 229 273 290 289 289 292 294 293 289 285 283 282 280 278 276 273 271 272 274 275 277
244 235 225 209 195 190 189 193 187 183 172 162 154 146 140 137 134 130 130 134 143 193 276 294 297 299 301 299 296 292 288 286 283 280 278 275 274 274 275 276 276 276 276
229 218 206 199 192 191 190 194 188 180 175 166 158 153 152 151 138 126 109 73 5 337 323 314 306 306 306 303 299 296 292 286 282 280 277 274 273 274 276 279 278 276 275
215 204 195 196 196 188 192 194 188 184 177 169 161 156 156 149 121 53 9 342 328 320 314 310 308 308 304 301 300 297 293 289 285 281 280 280 280 279 279 278 275 272 271
208 199 195 195 193 192 190 187 187 184 178 171 170 171 166 163 329 325 318 313 309 307 304 302 301 299 298 296 296 294 292 289 287 284 281 280 280 281 280 277 274 271 271
195 190 192 188 186 186 187 187 182 178 175 176 183 202 259 292 299 303 302 303 303 301 300 299 298 299 299 300 299 296 293 290 289 286 283 282 282 280 277 276 273 271 270
193 189 185 184 181 181 181 179 180 176 184 202 227 256 279 289 294 294 295 298 298 299 299 300 302 304 302 298 294 293 291 290 289 287 286 283 278 275 275 273 269 268 267
179 176 174 173 174 176 178 182 187 202 216 235 257 273 282 287 290 291 292 292 293 298 302 301 301 299 297 295 294 292 290 289 289 286 283 281 278 277 276 275 271 269 267